Location: Vicenza
(45.5500°N, 11.5500°E)
Time: 06:43:36
(UTC+02:00)

ISS - Visible Passes

Search period start: 25 September 2018 00:00
Search period end: 05 October 2018 00:00
Orbit: 403 x 408 km, 51.6° (Epoch: 25 September)

Date Brightness Start Highest point End Pass type
(mag) Time Alt. Az. Time Alt. Az. Time Alt. Az.
25 Sep -3.0 21:02:41 10° W 21:05:52 46° NNW 21:06:04 45° N visible
26 Sep -3.5 20:10:39 10° WSW 20:13:56 67° NNW 20:16:23 17° NE visible
26 Sep -0.9 21:47:54 10° WNW 21:49:05 18° NW 21:49:05 18° NW visible
27 Sep -2.4 20:55:45 10° WNW 20:58:47 32° NNW 20:59:17 30° N visible
28 Sep -2.7 20:03:37 10° W 20:06:46 40° NNW 20:09:26 13° NE visible
28 Sep -0.9 21:40:56 10° WNW 21:42:06 18° NW 21:42:06 18° NW visible
29 Sep -2.2 20:48:49 10° WNW 20:51:43 27° N 20:52:11 26° NNE visible
30 Sep -2.3 19:56:39 10° WNW 19:59:38 30° N 20:02:14 12° NE visible
30 Sep -1.0 21:33:43 10° NW 21:34:54 18° NW 21:34:54 18° NW visible
01 Oct -2.3 20:41:43 10° WNW 20:44:37 28° N 20:44:55 27° NNE visible
02 Oct -2.2 19:49:36 10° WNW 19:52:30 27° N 19:54:55 13° NE visible
02 Oct -1.2 21:26:21 10° NW 21:27:35 20° NW 21:27:35 20° NW visible
03 Oct -2.7 20:34:24 10° NW 20:37:27 33° NNE 20:37:35 33° NNE visible
04 Oct -2.4 19:42:22 10° NW 19:45:19 28° N 19:47:35 14° ENE visible
04 Oct -1.3 21:18:53 10° WNW 21:20:15 23° NW 21:20:15 23° NW visible
